This demonstration page uses our WeatherBlox Daily Observations layout. Learn more.

Left ArrowRight Arrow

Hourly Observations for May 26, 2015

Temp ( °F °C ) Dew Point ( °F °C ) Humidity (%) Winds ( mph kmh ) Pressure ( in mb ) Visibility ( mi km ) Precip ( " mm )
12:53 am 00:53 Mostly Clear 71 21.7 64 17.8 79 79 S 6 9 30.10 1019 10 16 0.00 0.00
1:53 am 01:53 Clear 70 21.1 64 17.8 82 82 SSW 5 7 30.10 1019 10 16 0.00 0.00
2:53 am 02:53 Clear 69 20.6 64 17.8 84 84 S 5 7 30.09 1019 10 16 0.00 0.00
3:53 am 03:53 Partly Cloudy 69 20.6 64 17.8 84 84 SSW 6 9 30.09 1019 10 16 0.00 0.00
4:19 am 04:19 Cloudy 68 20 64 17.8 87 87 Calm 30.06 1018 10 16 0.00 0.00
4:42 am 04:42 Partly Cloudy 67 19.4 64 17.8 91 91 SSE 3 6 30.06 1018 10 16 0.00 0.00
4:53 am 04:53 Partly Cloudy 67 19.4 64 17.8 91 91 S 3 6 30.09 1019 10 16 0.00 0.00
4:56 am 04:56 Mostly Cloudy 67 19.4 64 17.8 91 91 Calm 30.09 1019 10 16 0.00 0.00
5:15 am 05:15 Partly Cloudy 67 19.4 64 17.8 91 91 SE 3 6 30.06 1018 10 16 0.00 0.00
5:53 am 05:53 Partly Cloudy 64 17.8 62 16.7 93 93 Calm 30.10 1019 10 16 0.00 0.00
6:53 am 06:53 Mostly Cloudy 65 18.3 64 17.8 97 97 E 3 6 30.10 1019 7 11 0.00 0.00
7:53 am 07:53 Partly Cloudy 69 20.6 65 18.3 87 87 Calm 30.11 1020 10 16 0.00 0.00
8:53 am 08:53 Mostly Sunny 73 22.8 65 18.3 76 76 SSE 3 6 30.11 1020 10 16 0.00 0.00
9:53 am 09:53 Sunny 77 25 65 18.3 66 66 VRB 6 9 30.10 1019 10 16 0.00 0.00
10:53 am 10:53 Sunny 79 26.1 65 18.3 62 62 SSW 10 17 30.08 1019 10 16 0.00 0.00
11:53 am 11:53 Partly Cloudy 82 27.8 65 18.3 56 56 SSW 8 13 30.06 1018 10 16 0.00 0.00
12:53 pm 12:53 Mostly Cloudy 84 28.9 65 18.3 53 53 SSW 8 13 30.04 1017 10 16 0.00 0.00
1:53 pm 13:53 Mostly Cloudy 83 28.3 65 18.3 55 55 S 12 19 30.01 1016 10 16 0.00 0.00
2:53 pm 14:53 Partly Cloudy 84 28.9 68 20 59 59 SSW 10 17 29.98 1015 10 16 0.01 0.25
3:27 pm 15:27 Mostly Cloudy with Nearby Thunderstorms 76 24.4 68 20 77 77 S 13 20 30.00 1016 4 6 0.04 1.02
3:42 pm 15:42 Partly Cloudy 76 24.4 68 20 77 77 S 8 13 30.00 1016 10 16 0.04 1.02
3:51 pm 15:51 Partly Cloudy with Nearby Thunderstorms 75 24 68 20 78 78 VRB 7 11 30.00 1016 10 16 0.04 1.02
3:53 pm 15:53 Partly Cloudy with Nearby Thunderstorms 76 24.4 68 20 77 77 S 7 11 29.98 1015 10 16 0.04 1.02
4:06 pm 16:06 Partly Cloudy 77 25 68 20 74 74 S 9 15 30.00 1016 10 16 0.00 0.03
4:29 pm 16:29 Partly Cloudy with Thunderstorms 77 25 69 20.6 77 77 S 8 13 30.00 1016 10 16 0.00 0.03
4:39 pm 16:39 Mostly Cloudy with Strong Thunderstorms 70 21.1 66 18.9 87 87 WSW 17 28 30.03 1017 2 3 0.05 1.27
4:45 pm 16:45 Cloudy with Strong Thunderstorms 69 20.6 66 18.9 90 90 SW 16 26 30.03 1017 1 1 0.15 3.81
4:53 pm 16:53 Cloudy with Strong Thunderstorms 69 20.6 67 19.4 93 93 SSW 9 15 30.03 1017 1 1 0.25 6.35
5:03 pm 17:03 Cloudy with Thunderstorms 68 20 67 19.4 96 96 VRB 6 9 30.03 1017 2 3 0.04 1.02
5:06 pm 17:06 Cloudy with Nearby Thunderstorms 68 20 67 19.4 96 96 VRB 6 9 30.03 1017 2 3 0.05 1.27
5:17 pm 17:17 Mostly Cloudy with Nearby Thunderstorms 69 20.6 67 19.4 93 93 VRB 5 7 30.03 1017 6 10 0.06 1.52
5:39 pm 17:39 Mostly Cloudy with Light Rain 70 21.1 68 20 93 93 Calm 30.03 1017 10 16 0.07 1.78
5:53 pm 17:53 Mostly Sunny 72 22.2 69 20.6 91 91 VRB 6 9 30.00 1016 10 16 0.07 1.78
6:53 pm 18:53 Mostly Cloudy 73 22.8 69 20.6 87 87 SSW 5 7 29.99 1016 10 16 0.00 0.03
7:41 pm 19:41 Cloudy with Rain 72 22.2 70 21.1 94 94 W 6 9 30.00 1016 2 3 0.04 1.02
7:43 pm 19:43 Cloudy with Heavy Rain 72 22.2 69 20.6 91 91 W 7 11 30.00 1016 1 2 0.06 1.52
7:53 pm 19:53 Cloudy with Light Rain 71 21.7 69 20.6 94 94 Calm 29.99 1016 3 4 0.08 2.03
7:56 pm 19:56 Cloudy with Light Rain 71 21.7 69 20.6 94 94 Calm 30.00 1016 5 8 0.00 0.03
8:53 pm 20:53 Partly Cloudy with Light Rain 72 22.2 70 21.1 94 94 S 6 9 29.99 1016 10 16 0.00 0.03
9:53 pm 21:53 Clear 71 21.7 69 20.6 94 94 S 8 13 30.00 1016 10 16 0.01 0.25
10:53 pm 22:53 Clear 70 21.1 66 18.9 87 87 WSW 3 6 30.02 1017 10 16 0.00 0.00
11:53 pm 23:53 Partly Cloudy 69 20.6 66 18.9 90 90 SW 6 9 30.02 1017 10 16 0.00 0.00

Powered by AerisWeather